Location: Ryley
(53.2913°N, 112.4267°W)
Time: 05:36:45
(UTC+00:00)

Envisat - Visible Passes

Search period start: 06 December 2021 00:00
Search period end: 16 December 2021 00:00
Orbit: 764 x 766 km, 98.2° (Epoch: 05 December)

Date Brightness Start Highest point End Pass type
(mag) Time Alt. Az. Time Alt. Az. Time Alt. Az.
06 Dec 5.4 00:36:57 10° SSW 00:41:08 25° W 00:45:20 10° NW visible
06 Dec 5.9 11:00:52 10° ENE 11:03:10 13° E 11:05:29 10° ESE visible
06 Dec 3.1 12:38:00 10° NNE 12:43:07 74° ESE 12:48:12 10° S visible
06 Dec 4.1 14:17:45 10° N 14:21:40 23° NW 14:25:35 10° WSW visible
06 Dec 4.2 23:59:04 10° S 00:03:58 48° W 00:08:54 10° NNW visible
07 Dec 4.3 12:01:20 10° NNE 12:06:05 38° E 12:10:49 10° SSE visible
07 Dec 3.4 13:40:25 10° N 13:45:09 39° WNW 13:49:50 10° SW visible
08 Dec 5.9 01:03:37 10° SW 01:06:46 16° W 01:09:55 10° NW visible
08 Dec 5.4 11:25:05 10° NE 11:28:51 21° E 11:32:37 10° SE visible
08 Dec 2.9 13:03:20 10° NNE 13:08:26 73° WNW 13:13:29 10° SSW visible
08 Dec 4.5 14:43:39 10° NNW 14:46:39 16° NW 14:49:39 10° W visible
09 Dec 5.1 00:25:00 10° SSW 00:29:28 30° W 00:33:58 10° NNW visible
09 Dec 6.1 10:50:40 10° ENE 10:51:25 10° E 10:52:10 10° E visible
09 Dec 3.5 12:26:28 10° NNE 12:31:32 60° E 12:36:33 10° S visible
09 Dec 3.9 14:06:01 10° N 14:10:14 27° WNW 14:14:26 10° WSW visible
09 Dec 3.8 23:47:22 10° S 23:52:21 58° W 23:57:24 10° NNW visible
10 Dec 4.7 11:49:53 10° NNE 11:54:27 32° E 11:58:58 10° SSE visible
10 Dec 3.2 13:28:46 10° N 13:33:39 47° WNW 13:38:30 10° SW visible
11 Dec 5.8 00:51:23 10° SW 00:55:02 20° W 00:58:45 10° NW visible
11 Dec 5.6 11:13:52 10° NE 11:17:09 17° E 11:20:24 10° SE visible
11 Dec 2.9 12:51:45 10° NNE 12:56:53 87° WNW 13:01:58 10° SSW visible
11 Dec 4.3 14:31:47 10° N 14:35:14 19° NW 14:38:41 10° W visible
12 Dec 4.7 00:13:07 10° SSW 00:17:48 37° W 00:22:32 10° NNW visible
12 Dec 3.8 12:14:57 10° NNE 12:19:55 49° E 12:24:51 10° S visible
12 Dec 3.7 13:54:19 10° N 13:58:46 31° WNW 14:03:13 10° WSW visible
13 Dec 6.1 01:18:39 10° WSW 01:20:44 12° W 01:22:50 10° WNW visible
13 Dec 5.0 11:38:31 10° NE 11:42:46 26° E 11:47:00 10° SSE visible
13 Dec 3.0 13:17:08 10° N 13:22:08 57° WNW 13:27:06 10° SW visible
14 Dec 5.5 00:39:17 10° SW 00:43:21 24° W 00:47:27 10° NW visible
14 Dec 5.8 11:02:51 10° NE 11:05:24 14° E 11:07:59 10° ESE visible
14 Dec 3.0 12:40:11 10° NNE 12:45:19 78° ESE 12:50:24 10° S visible
14 Dec 4.1 14:20:00 10° N 14:23:49 22° NW 14:27:38 10° WSW visible
15 Dec 4.3 00:01:19 10° S 00:06:10 45° W 00:11:04 10° NNW visible
15 Dec 4.2 12:03:29 10° NNE 12:08:18 41° E 12:13:05 10° SSE visible
15 Dec 3.4 13:42:38 10° N 13:47:18 37° WNW 13:51:56 10° SW visible
